Weather History for KFTG - August, 2013

Change the Weather History Date:

Thursday, August 1, 2013

  Actual Average (KDEN) Record (KDEN)
Temperature  
Mean Temperature 78 °F 75 °F  
Max Temperature 93 °F 90 °F 104 °F (2008)
Min Temperature 64 °F 60 °F 42 °F (1995)
Degree Days  
Heating Degree Days 0 0  
Month to date heating degree days 0  
Since 1 June heating degree days 68  
Since 1 July heating degree days 6  
Cooling Degree Days 14 10  
Month to date cooling degree days 10  
Year to date cooling degree days 454  
Since 1 June cooling degree days 432  
Growing Degree Days 28 (Base 50)    
Moisture  
Dew Point 55 °F    
Average Humidity 62    
Maximum Humidity 83    
Minimum Humidity 11    
Precipitation  
Precipitation 0.00 in 0.07 in 1.71 in (1976)
Month to date precipitation 0.07  
Year to date precipitation 9.74  
Snow  
Snow 0.00 in - - ()
Month to date snowfall  
Since 1 June snowfall  
Since 1 July snowfall  
Snow Depth -    
Sea Level Pressure  
Sea Level Pressure 30.17 in    
Wind  
Wind Speed 14 mph (South)    
Max Wind Speed 24 mph    
Max Gust Speed 30 mph    
Visibility 10 miles    
Events      
T = Trace of Precipitation, MM = Missing Value Source: NWS Daily Summary

Daily Weather History Graph

Daily Weather History Graph

Search for Another Location

Airport or City:

Trip Planner

Search our weather history database for the weather conditions in past years. The results will help you decide how hot, cold, wet, or windy it might be!

Date:

Astronomy

Aug. 01, 2013 Rise Set
Actual Time 5:57 AM MDT 8:11 PM MDT
Civil Twilight 5:27 AM MDT 8:41 PM MDT
Nautical Twilight 4:50 AM MDT 9:18 PM MDT
Astronomical Twilight 4:09 AM MDT 9:58 PM MDT
Moon 1:35 AM MDT 4:21 PM MDT
Length of Visible Light 15h 13m
Length of Day
14h 13m
Waning Crescent, 23% of the Moon is Illuminated
Aug 1
Waning Crescent
Aug 6
New
Aug 14
First Quarter
Aug 20
Full
Aug 28
Last Quarter

Hourly Weather History & Observations

Time (MDT) Temp. Heat Index Dew Point Humidity Pressure Visibility Wind Dir Wind Speed Gust Speed Precip Events Conditions
12:16 AM 68.0 °F - 59.0 °F 73% 30.30 in 10.0 mi SSE 18.4 mph 26.5 mph N/A   Clear
12:36 AM 68.0 °F - 59.0 °F 73% 30.30 in 10.0 mi SSE 19.6 mph 29.9 mph N/A   Scattered Clouds
12:55 AM 68.0 °F - 59.0 °F 73% 30.30 in 10.0 mi SSE 20.7 mph 29.9 mph N/A   Clear
1:16 AM 68.0 °F - 59.0 °F 73% 30.29 in 10.0 mi South 17.3 mph 24.2 mph N/A   Clear
1:36 AM 66.2 °F - 59.0 °F 78% 30.29 in 10.0 mi SSE 18.4 mph 25.3 mph N/A   Clear
1:56 AM 66.2 °F - 59.0 °F 78% 30.29 in 10.0 mi SSE 17.3 mph 24.2 mph N/A   Clear
2:16 AM 66.2 °F - 59.0 °F 78% 30.28 in 10.0 mi SSE 17.3 mph 25.3 mph N/A   Clear
2:36 AM 66.2 °F - 59.0 °F 78% 30.27 in 10.0 mi South 15.0 mph 23.0 mph N/A   Clear
2:56 AM 66.2 °F - 57.2 °F 73% 30.26 in 10.0 mi South 13.8 mph - N/A   Clear
3:16 AM 64.4 °F - 57.2 °F 77% 30.26 in 10.0 mi SSE 13.8 mph 20.7 mph N/A   Clear
3:36 AM 64.4 °F - 57.2 °F 77% 30.26 in 10.0 mi SSE 13.8 mph - N/A   Clear
3:55 AM 64.4 °F - 57.2 °F 77% 30.26 in 10.0 mi South 11.5 mph - N/A   Clear
4:15 AM 64.4 °F - 57.2 °F 77% 30.25 in 10.0 mi South 9.2 mph - N/A   Clear
4:36 AM 64.4 °F - 57.2 °F 77% 30.24 in 10.0 mi SSE 10.4 mph - N/A   Clear
4:56 AM 64.4 °F - 59.0 °F 83% 30.23 in 10.0 mi South 11.5 mph - N/A   Clear
5:16 AM 64.4 °F - 59.0 °F 83% 30.22 in 10.0 mi South 11.5 mph - N/A   Clear
5:36 AM 64.4 °F - 59.0 °F 83% 30.22 in 10.0 mi South 10.4 mph - N/A   Clear
5:55 AM 64.4 °F - 59.0 °F 83% 30.22 in 10.0 mi SSW 13.8 mph - N/A   Clear
6:16 AM 64.4 °F - 59.0 °F 83% 30.21 in 10.0 mi SSW 13.8 mph 17.3 mph N/A   Clear
6:37 AM 64.4 °F - 59.0 °F 83% 30.21 in 10.0 mi SSW 9.2 mph - N/A   Clear
6:52 AM 66.2 °F - 59.0 °F 78% 30.20 in 10.0 mi South 11.5 mph - N/A   Clear
7:53 AM 73.4 °F - 57.2 °F 57% 30.19 in 40.0 mi SW 8.1 mph - N/A   Mostly Cloudy
8:48 AM 77.0 °F - 57.2 °F 50% 30.18 in 40.0 mi WSW 11.5 mph - N/A   Mostly Cloudy
9:48 AM 84.2 °F 82.8 °F 53.6 °F 35% 30.16 in 40.0 mi WSW 13.8 mph - N/A   Mostly Cloudy
10:48 AM 86.0 °F - 50.0 °F 29% 30.16 in 40.0 mi West 5.8 mph - N/A   Mostly Cloudy
11:50 AM 89.6 °F - 46.4 °F 22% 30.14 in 40.0 mi Calm Calm - N/A   Mostly Cloudy
12:48 PM 93.2 °F - 32.0 °F 11% 30.10 in 40.0 mi Calm Calm - N/A   Mostly Cloudy
2:50 PM 89.6 °F - 41.0 °F 18% 30.09 in 40.0 mi SW 24.2 mph - N/A   Mostly Cloudy
3:48 PM 89.6 °F - 44.6 °F 21% 30.07 in 40.0 mi SSW 18.4 mph 28.8 mph N/A   Mostly Cloudy
5:55 PM 86.0 °F - 44.6 °F 23% 30.08 in 40.0 mi SW 11.5 mph - N/A   Mostly Cloudy
6:53 PM 84.2 °F - 44.6 °F 25% 30.06 in 40.0 mi South 10.4 mph - N/A   Mostly Cloudy
7:50 PM 82.4 °F - 48.2 °F 30% 30.05 in 40.0 mi South 8.1 mph - N/A   Mostly Cloudy
8:56 PM 75.2 °F - 50.0 °F 41% 30.06 in 10.0 mi NNE 6.9 mph - N/A   Clear
9:17 PM 73.4 °F - 55.4 °F 53% 30.07 in 10.0 mi NNE 3.5 mph - N/A   Clear
9:37 PM 69.8 °F - 55.4 °F 60% 30.07 in 10.0 mi NNE 8.1 mph - N/A   Clear
9:56 PM 68.0 °F - 55.4 °F 64% 30.06 in 10.0 mi NE 5.8 mph - N/A   Clear
10:16 PM 68.0 °F - 55.4 °F 64% 30.06 in 10.0 mi East 5.8 mph - N/A   Clear
10:36 PM 68.0 °F - 55.4 °F 64% 30.05 in 10.0 mi SSE 3.5 mph - N/A   Clear
10:55 PM 66.2 °F - 55.4 °F 68% 30.04 in 10.0 mi South 3.5 mph - N/A   Clear
11:16 PM 64.4 °F - 55.4 °F 73% 30.05 in 10.0 mi WNW 10.4 mph - N/A   Clear
11:36 PM 64.4 °F - 55.4 °F 73% 30.05 in 10.0 mi WNW 10.4 mph - N/A   Clear
11:56 PM 66.2 °F - 55.4 °F 68% 30.05 in 10.0 mi WNW 9.2 mph - N/A   Clear